星链-3589 (STARLINK-3589 )

导读 | 星芒AI

STARLINK-3589 是由 SpaceX 发射的星链(Starlink)卫星之一,属于其低轨卫星互联网星座计划的一部分。该卫星旨在为全球用户提供高速、低延迟的互联网服务,特别是在网络基础设施薄弱的地区。它运行在近地轨道,配备先进通信设备,支持星间链路,提高网络效率与覆盖能力。作为星链计划的扩展,STARLINK-3589 有助于增强 SpaceX 的全球宽带服务能力,并推动其在商业航天和通信领域的领先地位。

基本信息
目录编号:
51997
目录名称:
STARLINK-3589
国际标识:
2022-025AT
轨道中心:
EARTH
卫星名称:
星链-3589
卫星全名:
星链-3589 (STARLINK-3589 )
卫星状态:
在轨 (已飞行1336 天)
发射日期:
2022-03-09 UTC
国别 :
美国 (US)
星等 :
--
轨道信息
数据来源 国际轨道数据
星历时间: 2025-11-04T19:29:14+0800
6小时前
查看轨道信息
半长轴: 6917.852km
偏心率: 0.0001351
轨道倾角: 53.217°
近地点辐角 69.606°
升交点赤经 221.216°
平近点角 290.507°
近地点: 538.782km
远地点: 540.652km
周期: 95.437分钟
每日圈数: 15.088495
详细信息
固有亮度:
5
最大亮度:
2.5
卫星平台:
Starlink v1.5
覆盖范围:
全球
运营商:
太空探索技术公司
运营商所在国:
美国
制造商(研发单位):
太空探索技术公司
制造商所在国:
美国
使用方式:
暂无
卫星简介
星链(Starlink)计划是由太空探索技术公司(SpaceX)提出的一个巨型低轨卫星互联网星座项目,计划在2019年至2024年间在太空搭建由约1.2万颗卫星组成的“星链”网络,其中1584颗将部署在地球上空550千米处的近地轨道,并从2020年开始工作。该卫星仍在工作。
2D轨道图
3D轨道图
轨道高度分析图
轨道倾角分析图
轨道综合分析图
查看轨道综合分析图